This is the latest recevied weather packets stored in our database for station/object K7NDG. If no packets are shown the sender has not sent any weather packets the latest 10 day(s).
| Time | Temp. | Humidity | Pressure | Rain* | Wind** | Luminosity | Snow |
|---|---|---|---|---|---|---|---|
| 1777929460 | 22.22° C | 60% | 1012.9 hPa | 0 mm | - | 619 W/m² | - |
| 1777929156 | 22.22° C | 60% | 1012.9 hPa | 0 mm | - | 625 W/m² | - |
| 1777928854 | 22.22° C | 60% | 1013.1 hPa | 0 mm | - | 574 W/m² | - |
| 1777928551 | 22.22° C | 60% | 1013 hPa | 0 mm | - | 608 W/m² | - |
| 1777928248 | 21.67° C | 61% | 1012.6 hPa | 0 mm | - | 581 W/m² | - |
| 1777927946 | 22.22° C | 60% | 1012.9 hPa | 0 mm | - | 488 W/m² | - |
| 1777927644 | 22.22° C | 59% | 1013.1 hPa | 0 mm | - | 601 W/m² | - |
| 1777927342 | 22.22° C | 60% | 1013.1 hPa | 0 mm | - | 602 W/m² | - |
| 1777927041 | 22.22° C | 61% | 1013.1 hPa | 0 mm | - | 552 W/m² | - |
| 1777926738 | 21.67° C | 60% | 1013.2 hPa | 0 mm | - | 619 W/m² | - |
| 1777926438 | 21.67° C | 60% | 1013 hPa | 0 mm | - | 618 W/m² | - |
| 1777926135 | 21.67° C | 59% | 1013.1 hPa | 0 mm | - | 625 W/m² | - |
| 1777925832 | 22.22° C | 60% | 1013 hPa | 0 mm | - | 617 W/m² | - |
| 1777925529 | 21.67° C | 60% | 1013.1 hPa | 0 mm | - | 636 W/m² | - |
| 1777925227 | 21.67° C | 61% | 1013.1 hPa | 0 mm | - | 639 W/m² | - |
| 1777924923 | 21.67° C | 61% | 1013.3 hPa | 0 mm | - | 635 W/m² | - |
| 1777924619 | 21.67° C | 63% | 1012.9 hPa | 0 mm | - | 625 W/m² | - |
| 1777924315 | 21.11° C | 63% | 1013.1 hPa | 0 mm | - | 615 W/m² | - |
| 1777924013 | 21.11° C | 62% | 1013 hPa | 0 mm | - | 606 W/m² | - |
| 1777923708 | 21.11° C | 63% | 1013.2 hPa | 0 mm | - | 612 W/m² | - |
| 1777923405 | 21.11° C | 63% | 1013.2 hPa | 0 mm | - | 585 W/m² | - |
| 1777923103 | 21.11° C | 65% | 1012.9 hPa | 0 mm | - | 617 W/m² | - |
| 1777922801 | 20.56° C | 65% | 1013.2 hPa | 0 mm | - | 624 W/m² | - |
| 1777922499 | 20.56° C | 65% | 1013.2 hPa | 0 mm | - | 630 W/m² | - |
| 1777922197 | 20.56° C | 64% | 1013.2 hPa | 0 mm | - | 618 W/m² | - |
* Rain latest hour (hover to see other rain measurements)
** Current wind speed in m/s (hover to see current wind gust speed)